| time (UTC) | temp F | wind direction | speed knots | gust knots | rain 1hr in | rain 24hr in | rain mn in | humidity % | barometer mb |
| 20260901000019 | 84 | 313 | 0.0 | 0.9 | 0.00 | 0.00 | 0.00 | 29 | 1008.8 |
| 20260831234525 | 84 | 333 | 0.0 | 1.7 | 0.00 | 0.00 | 0.00 | 30 | 1009.1 |
| 20260831233034 | 84 | 297 | 0.0 | 1.7 | 0.00 | 0.00 | 0.00 | 29 | 1009.5 |
| 20260831231514 | 84 | 298 | 0.0 | 1.7 | 0.00 | 0.00 | 0.00 | 29 | 1009.6 |
| 20260831230011 | 84 | 286 | 0.0 | 1.7 | 0.00 | 0.00 | 0.00 | 30 | 1009.9 |
| 20260831224527 | 84 | 312 | 0.0 | 2.6 | 0.00 | 0.00 | 0.00 | 30 | 1010.1 |
| 20260831223033 | 84 | 314 | 0.0 | 2.6 | 0.00 | 0.00 | 0.00 | 30 | 1010.4 |
| 20260831221528 | 84 | 103 | 0.0 | 2.6 | 0.00 | 0.00 | 0.00 | 30 | 1010.6 |
| 20260831220022 | 83 | 35 | 0.0 | 1.7 | 0.00 | 0.00 | 0.00 | 31 | 1010.9 |
| 20260831214506 | 83 | 322 | 0.0 | 1.7 | 0.00 | 0.00 | 0.00 | 32 | 1011.2 |
| 20260831213003 | 83 | 305 | 0.0 | 1.7 | 0.00 | 0.00 | 0.00 | 32 | 1011.5 |
| 20260831211502 | 82 | 318 | 0.0 | 1.7 | 0.00 | 0.00 | 0.00 | 33 | 1011.7 |
| 20260831210002 | 81 | 292 | 0.9 | 2.6 | 0.00 | 0.00 | 0.00 | 31 | 1012.0 |
| 20260831204509 | 81 | 34 | 0.0 | 1.7 | 0.00 | 0.00 | 0.00 | 32 | 1012.2 |
| 20260831203004 | 80 | 292 | 0.0 | 1.7 | 0.00 | 0.00 | 0.00 | 33 | 1012.4 |
| 20260831201504 | 80 | 321 | 0.0 | 1.7 | 0.00 | 0.00 | 0.00 | 34 | 1012.8 |
| 20260831200010 | 79 | 102 | 0.0 | 2.6 | 0.00 | 0.00 | 0.00 | 35 | 1013.1 |
| 20260831194502 | 79 | 350 | 0.0 | 1.7 | 0.00 | 0.00 | 0.00 | 36 | 1013.2 |
| 20260831193004 | 78 | 101 | 0.0 | 0.9 | 0.00 | 0.00 | 0.00 | 37 | 1013.5 |
| 20260831191505 | 77 | 318 | 0.0 | 1.7 | 0.00 | 0.00 | 0.00 | 40 | 1013.7 |
| 20260831190007 | 77 | 297 | 0.0 | 0.0 | 0.00 | 0.00 | 0.00 | 40 | 1014.0 |
| 20260831184513 | 76 | 321 | 0.0 | 0.0 | 0.00 | 0.00 | 0.00 | 44 | 1014.2 |
| 20260831183004 | 75 | 302 | 0.0 | 0.0 | 0.00 | 0.00 | 0.00 | 43 | 1014.4 |
| 20260831181511 | 73 | 306 | 0.0 | 1.7 | 0.00 | 0.00 | 0.00 | 43 | 1014.7 |
| 20260831180009 | 72 | 326 | 0.0 | 0.9 | 0.00 | 0.00 | 0.00 | 44 | 1014.8 |
| 20260831174512 | 71 | 302 | 0.0 | 0.9 | 0.00 | 0.00 | 0.00 | 46 | 1015.0 |
| 20260831173010 | 69 | 321 | 0.0 | 0.0 | 0.00 | 0.00 | 0.00 | 45 | 1015.0 |
| 20260831171505 | 68 | 298 | 0.0 | 1.7 | 0.00 | 0.00 | 0.00 | 47 | 1015.1 |
| 20260831170004 | 67 | 308 | 0.0 | 1.7 | 0.00 | 0.00 | 0.00 | 48 | 1015.3 |
| 20260831164503 | 65 | 46 | 0.0 | 0.9 | 0.00 | 0.00 | 0.00 | 50 | 1015.4 |
| 20260831163016 | 63 | 46 | 0.0 | 0.0 | 0.00 | 0.00 | 0.00 | 52 | 1015.5 |
| 20260831161519 | 61 | 46 | 0.0 | 0.0 | 0.00 | 0.00 | 0.00 | 56 | 1015.6 |
| 20260831160008 | 60 | 92 | 0.0 | 0.0 | 0.00 | 0.00 | 0.00 | 60 | 1015.7 |
| 20260831154522 | 58 | 92 | 0.0 | 0.0 | 0.00 | 0.00 | 0.00 | 63 | 1015.7 |
| 20260831153010 | 56 | 92 | 0.0 | 0.0 | 0.00 | 0.00 | 0.00 | 65 | 1015.7 |
| 20260831151504 | 55 | 96 | 0.0 | 0.0 | 0.00 | 0.00 | 0.00 | 67 | 1015.6 |
| 20260831150028 | 53 | 96 | 0.0 | 0.0 | 0.00 | 0.00 | 0.00 | 69 | 1015.6 |
| 20260831144517 | 52 | 96 | 0.0 | 0.0 | 0.00 | 0.00 | 0.00 | 69 | 1015.5 |
| 20260831143014 | 52 | 96 | 0.0 | 0.0 | 0.00 | 0.00 | 0.00 | 68 | 1015.4 |
| 20260831141517 | 51 | 96 | 0.0 | 0.0 | 0.00 | 0.00 | 0.00 | 67 | 1015.4 |
| 20260831140011 | 52 | 96 | 0.0 | 0.0 | 0.00 | 0.00 | 0.00 | 67 | 1015.2 |
| 20260831134511 | 52 | 96 | 0.0 | 0.0 | 0.00 | 0.00 | 0.00 | 69 | 1015.1 |
| 20260831133012 | 52 | 96 | 0.0 | 0.0 | 0.00 | 0.00 | 0.00 | 66 | 1015.1 |
| 20260831131518 | 53 | 96 | 0.0 | 0.0 | 0.00 | 0.00 | 0.00 | 66 | 1015.0 |
| 20260831130024 | 53 | 96 | 0.0 | 0.0 | 0.00 | 0.00 | 0.00 | 66 | 1015.0 |
| 20260831124504 | 53 | 96 | 0.0 | 0.0 | 0.00 | 0.00 | 0.00 | 64 | 1015.1 |
| 20260831123009 | 54 | 96 | 0.0 | 0.0 | 0.00 | 0.00 | 0.00 | 65 | 1015.0 |
| 20260831121526 | 54 | 96 | 0.0 | 0.0 | 0.00 | 0.00 | 0.00 | 63 | 1015.0 |
| 20260831120019 | 54 | 96 | 0.0 | 0.0 | 0.00 | 0.00 | 0.00 | 61 | 1015.0 |
| 20260831114505 | 54 | 96 | 0.0 | 0.0 | 0.00 | 0.00 | 0.00 | 59 | 1015.1 |
| 20260831113007 | 54 | 96 | 0.0 | 0.0 | 0.00 | 0.00 | 0.00 | 60 | 1014.9 |
| 20260831111503 | 54 | 96 | 0.0 | 0.0 | 0.00 | 0.00 | 0.00 | 61 | 1015.0 |
| 20260831110022 | 54 | 96 | 0.0 | 0.0 | 0.00 | 0.00 | 0.00 | 61 | 1015.1 |
| 20260831104523 | 54 | 96 | 0.0 | 0.0 | 0.00 | 0.00 | 0.00 | 61 | 1014.9 |
| 20260831103004 | 54 | 96 | 0.0 | 0.0 | 0.00 | 0.00 | 0.00 | 60 | 1015.1 |
| 20260831101515 | 54 | 96 | 0.0 | 0.0 | 0.00 | 0.00 | 0.00 | 56 | 1015.1 |
| 20260831100012 | 55 | 96 | 0.0 | 0.0 | 0.00 | 0.00 | 0.00 | 56 | 1015.3 |
| 20260831094505 | 55 | 96 | 0.0 | 0.0 | 0.00 | 0.00 | 0.00 | 53 | 1015.3 |
| 20260831093029 | 56 | 96 | 0.0 | 0.0 | 0.00 | 0.00 | 0.00 | 51 | 1015.4 |
| 20260831091511 | 56 | 96 | 0.0 | 0.0 | 0.00 | 0.00 | 0.00 | 52 | 1015.4 |
| 20260831090017 | 57 | 96 | 0.0 | 0.0 | 0.00 | 0.00 | 0.00 | 51 | 1015.4 |
| 20260831084532 | 57 | 96 | 0.0 | 0.0 | 0.00 | 0.00 | 0.00 | 49 | 1015.5 |
| 20260831083012 | 57 | 96 | 0.0 | 0.0 | 0.00 | 0.00 | 0.00 | 49 | 1015.5 |
| 20260831081519 | 58 | 96 | 0.0 | 0.0 | 0.00 | 0.00 | 0.00 | 49 | 1015.5 |
| 20260831080012 | 58 | 96 | 0.0 | 0.0 | 0.00 | 0.00 | 0.00 | 54 | 1015.5 |
| 20260831074534 | 59 | 96 | 0.0 | 0.0 | 0.00 | 0.00 | 0.00 | 54 | 1015.5 |
| 20260831073056 | 59 | 96 | 0.0 | 0.0 | 0.00 | 0.00 | 0.00 | 52 | 1015.4 |
| 20260831071522 | 60 | 96 | 0.0 | 0.0 | 0.00 | 0.00 | 0.00 | 51 | 1015.4 |
| 20260831070021 | 60 | 96 | 0.0 | 0.0 | 0.00 | 0.00 | 0.00 | 50 | 1015.5 |
| 20260831064530 | 60 | 96 | 0.0 | 0.0 | 0.00 | 0.00 | 0.00 | 48 | 1015.6 |
| 20260831063023 | 60 | 96 | 0.0 | 0.0 | 0.00 | 0.00 | 0.00 | 46 | 1015.5 |
| 20260831061537 | 61 | 96 | 0.0 | 0.0 | 0.00 | 0.00 | 0.00 | 46 | 1015.6 |
| 20260831060004 | 61 | 96 | 0.0 | 0.0 | 0.00 | 0.00 | 0.00 | 45 | 1015.6 |
| 20260831054504 | 62 | 96 | 0.0 | 0.0 | 0.00 | 0.00 | 0.00 | 45 | 1015.6 |
| 20260831053020 | 62 | 96 | 0.0 | 0.0 | 0.00 | 0.00 | 0.00 | 42 | 1015.7 |
| 20260831051508 | 63 | 96 | 0.0 | 0.0 | 0.00 | 0.00 | 0.00 | 41 | 1015.6 |
| 20260831050023 | 64 | 96 | 0.0 | 0.0 | 0.00 | 0.00 | 0.00 | 39 | 1015.6 |
| 20260831044511 | 65 | 96 | 0.0 | 0.0 | 0.00 | 0.00 | 0.00 | 39 | 1015.6 |
| 20260831043010 | 66 | 96 | 0.0 | 0.0 | 0.00 | 0.00 | 0.00 | 38 | 1015.5 |
| 20260831041505 | 66 | 96 | 0.0 | 0.0 | 0.00 | 0.00 | 0.00 | 37 | 1015.6 |
| 20260831040012 | 67 | 96 | 0.0 | 0.0 | 0.00 | 0.00 | 0.00 | 38 | 1015.6 |
| 20260831034507 | 67 | 96 | 0.0 | 0.0 | 0.00 | 0.00 | 0.00 | 38 | 1015.6 |
| 20260831033018 | 68 | 96 | 0.0 | 0.0 | 0.00 | 0.00 | 0.00 | 38 | 1015.6 |
| 20260831031515 | 68 | 96 | 0.0 | 0.0 | 0.00 | 0.00 | 0.00 | 39 | 1015.5 |
| 20260831030025 | 69 | 96 | 0.0 | 0.0 | 0.00 | 0.00 | 0.00 | 39 | 1015.5 |
| 20260831024504 | 70 | 96 | 0.0 | 0.0 | 0.00 | 0.00 | 0.00 | 39 | 1015.3 |
| 20260831023009 | 71 | 96 | 0.0 | 0.0 | 0.00 | 0.00 | 0.00 | 36 | 1015.3 |
| 20260831021518 | 72 | 96 | 0.0 | 0.0 | 0.00 | 0.00 | 0.00 | 33 | 1015.4 |
| 20260831020023 | 73 | 96 | 0.0 | 0.0 | 0.00 | 0.00 | 0.00 | 32 | 1015.3 |
| 20260831014530 | 74 | 94 | 0.0 | 0.0 | 0.00 | 0.00 | 0.00 | 33 | 1015.3 |
| 20260831013008 | 75 | 84 | 0.0 | 0.0 | 0.00 | 0.00 | 0.00 | 33 | 1015.3 |
| 20260831011512 | 75 | 84 | 0.0 | 0.0 | 0.00 | 0.00 | 0.00 | 32 | 1015.3 |
| 20260831010020 | 76 | 85 | 0.0 | 0.0 | 0.00 | 0.00 | 0.00 | 31 | 1015.4 |
| 20260831004527 | 76 | 84 | 0.0 | 0.9 | 0.00 | 0.00 | 0.00 | 31 | 1015.4 |
| 20260831003024 | 77 | 151 | 0.0 | 1.7 | 0.00 | 0.00 | 0.00 | 31 | 1015.4 |
| 20260831001510 | 77 | 151 | 0.0 | 0.9 | 0.00 | 0.00 | 0.00 | 32 | 1015.4 |